Location: Wharf Road Observatory
(44.7802°N, 65.6070°W)
Time: 02:38:13
(UTC-03:00)

ISS - Visible Passes

Search period start: 28 September 2022 00:00
Search period end: 08 October 2022 00:00
Orbit: 414 x 417 km, 51.6° (Epoch: 28 September)

Date Brightness Start Highest point End Pass type
(mag) Time Alt. Az. Time Alt. Az. Time Alt. Az.
28 Sep -3.3 20:59:08 10° NW 21:02:10 52° N 21:02:10 52° N visible
29 Sep -2.9 20:10:27 10° NW 20:13:38 39° NNE 20:15:21 22° ENE visible
29 Sep -0.9 21:47:12 10° WNW 21:48:14 18° WNW 21:48:14 18° WNW visible
30 Sep -3.5 20:58:21 10° WNW 21:01:27 65° WSW 21:01:27 65° WSW visible
01 Oct -3.8 20:09:36 10° WNW 20:12:57 75° NNE 20:14:42 26° ESE visible
01 Oct -0.6 21:47:03 10° W 21:47:36 12° W 21:47:36 12° W visible
02 Oct -2.2 20:57:47 10° WNW 21:00:42 28° SW 21:00:55 28° SW visible
03 Oct -2.9 20:08:46 10° WNW 20:12:00 46° SW 20:14:20 17° SSE visible
04 Oct -0.8 20:58:18 10° WSW 20:59:25 11° SW 21:00:33 10° SSW visible
05 Oct -1.2 20:08:20 10° W 20:10:47 19° SW 20:13:12 10° S visible
06 Oct -1.9 19:19:03 10° WNW 19:22:04 31° SW 19:25:03 10° SSE visible
